Flag for Malawi Weather past 2 weeks in Mzuzu, Malawi

Now
59 °F

Passing clouds.


Feels Like: 59 °F
Forecast: 50 / 81 °F
Wind: No wind

Location: Songea

Current Time: Aug 22, 2014 at 8:38:29 AM

Latest Report: Aug 22, 2014 at 7:00 AM


Visibility: N/A

Pressure: 30.09 "Hg

Humidity: 94%

Dew point: 57 °F

Location of MzuzuLocation

Historic Weather in Mzuzu — Graph

°F

Mzuzu temperature yesterday

Maximum temperature yesterday: 82 °F (at 2:00 PM)
Minimum temperature yesterday: 55 °F (at 6:00 AM)
Average temperature yesterday: 70 °F

Past Weeks' High & Low Weather Summary

 TemperatureHumidityPressure
High82 °F (Aug 21, 2:00 PM)94% (Aug 20, 5:00 AM)30.30 "Hg (Aug 20, 5:00 AM)
Low55 °F (Aug 21, 6:00 AM)37% (Aug 8, 2:00 PM)30.07 "Hg (Aug 21, 2:00 PM)
Average70 °F59%30.21 "Hg
* Reported Aug 7 7:00 AM — Aug 22 7:00 AM, Mzuzu, Weather by CustomWeather, © 2014

Note: Actual official high and low records may vary slightly from our data, if they occured in-between our weather recording intervals... More about our weather records

Advertising

Mzuzu weather history for previous 24 hours

 ConditionsComfort  
Time TempWeatherWind HumidityBarometerVisibility
7:00 AM
Aug 22
59 °FPassing clouds.No wind94%30.09 "HgN/A
6:00 AM59 °FPassing clouds.No wind88%30.09 "HgN/A
5:00 AM59 °FPassing clouds.No wind88%30.07 "HgN/A
11:00 PM
Aug 21
64 °FPassing clouds.No wind78%30.15 "HgN/A
10:00 PM68 °FPassing clouds.No wind64%30.15 "HgN/A
9:00 PM68 °FPassing clouds.No wind64%30.15 "HgN/A
8:00 PM70 °FPassing clouds.No wind60%30.15 "HgN/A
7:00 PM75 °FPassing clouds.9 mph50%30.09 "HgN/A
5:00 PM79 °FPassing clouds.No wind39%30.07 "HgN/A
4:00 PM79 °FPassing clouds.No wind39%30.07 "HgN/A
3:00 PM81 °FScattered clouds.14 mph39%30.07 "HgN/A
2:00 PM82 °FScattered clouds.12 mph37%30.07 "HgN/A
1:00 PM81 °FScattered clouds.12 mph39%30.09 "HgN/A
12:00 PM79 °FScattered clouds.12 mph45%30.15 "HgN/A
11:00 AM75 °FScattered clouds.14 mph50%30.18 "HgN/A
10:00 AM73 °FScattered clouds.12 mph57%30.21 "HgN/A
9:00 AM70 °FPassing clouds.12 mph60%30.18 "HgN/A
8:00 AM66 °FSunny.12 mph73%30.18 "HgN/A
Weather by CustomWeather, © 2014

See weather overviewHow to use our weather pages